Location: Ferchesar
(52.6477°N, 12.4298°E)
Time: 15:56:56
(UTC+01:00)

Vanguard 1 - Pass Details

Date: 11 December 2021
Orbit: 652 x 3830 km, 34.2° (Epoch: 22 January)

Event Time Altitude Azimuth Distance (km) Brightness Sun altitude
Rises 19:00:31 0° 166° (SSE) 5,985 14.0 -26.6°
Reaches altitude 10° 19:08:56 10° 139° (SE) 5,783 13.6 -27.9°
Enters shadow 19:09:45 11° 136° (SE) 5,805 13.6 -28.0°
Maximum altitude 19:13:54 12° 122° (ESE) 6,020 - -28.7°
Drops below altitude 10° 19:19:22 10° 107° (ESE) 6,503 - -29.5°
Sets 19:30:55 0° 82° (E) 7,939 - -31.2°
